Вернуться в каталог

COSMOS 2251 DEB

АктивенLEO
NORAD 37486·DEBRIS·🇷🇺 Russia

Запущен Jun 16, 1993 с Plesetsk Cosmodrome

Loading…

Ближайшие Пролёты (ближайшие 24 часа)

TLE

СвежийSource: Space-Track

Эпоха: Sep 13, 2026, 23:35 UTC

1 37486U 93036BLP 26256.98279935  .00003346  00000-0  13586-2 0  9993
2 37486  73.6933 335.7435 0217917 163.7993  10.4773 14.15939659672623

Отслеживайте COSMOS 2251 DEB в реальном времени с AllMySat

Download on the App Store